GW3250 Weather Reports


time (UTC)temp
C
wind
direction
speed
KPH
gust
KPH
rain 1hr
cm
rain 24hr
cm
rain mn
cm
humidity
%
barometer
mb
20260506151035 15 263 6.4 6.4 0.18 0.25 0.25 99 1005.2
20260506150531 15 151 1.6 3.2 0.13 0.23 0.23 99 1005.6
20260506150029 15 274 8.0 12.9 0.13 0.23 0.23 99 1005.5
20260506145525 15 167 9.7 11.3 0.18 0.20 0.20 99 1005.6
20260506145023 15 201 1.6 3.2 0.36 0.20 0.20 99 1005.7
20260506144519 15 149 0.0 0.0 0.18 0.18 0.18 99 1005.7
20260506144017 15 159 0.0 1.6 0.00 0.15 0.15 99 1005.9
20260506143514 15 155 1.6 3.2 0.13 0.15 0.15 99 1005.9
20260506143013 15 155 1.6 3.2 0.30 0.15 0.15 99 1005.7
20260506142510 15 169 0.0 1.6 0.30 0.13 0.13 99 1006.0
20260506142008 15 201 1.6 1.6 0.13 0.10 0.10 98 1006.0
20260506141506 15 250 3.2 3.2 0.18 0.08 0.08 98 1006.0
20260506141004 15 270 3.2 4.8 0.18 0.08 0.08 98 1006.1
20260506140500 15 166 0.0 1.6 0.18 0.08 0.08 98 1006.0
20260506135957 15 166 1.6 3.2 0.13 0.05 0.05 97 1006.2
20260506135455 15 236 0.0 1.6 0.18 0.03 0.03 95 1006.1
20260506134950 15 232 3.2 3.2 0.18 0.03 0.03 94 1006.2
20260506134446 15 225 1.6 1.6 0.00 0.00 0.00 91 1006.2
20260506133943 16 220 1.6 1.6 0.00 0.00 0.00 90 1006.3
20260506133440 16 248 3.2 3.2 0.00 0.00 0.00 89 1006.5
20260506132937 16 256 6.4 6.4 0.00 0.00 0.00 88 1006.2
20260506132434 16 212 4.8 6.4 0.00 0.00 0.00 88 1006.1
20260506131932 16 271 3.2 9.7 0.00 0.00 0.00 88 1006.2
20260506131428 16 157 3.2 4.8 0.00 0.00 0.00 88 1006.1
20260506130925 16 185 1.6 3.2 0.00 0.00 0.00 88 1006.1
20260506130421 16 246 4.8 4.8 0.00 0.00 0.00 88 1005.9
20260506125920 16 233 3.2 3.2 0.00 0.00 0.00 87 1005.4
20260506125418 16 223 1.6 4.8 0.00 0.00 0.00 87 1005.6
20260506124916 16 212 1.6 3.2 0.00 0.00 0.00 86 1005.7
20260506124413 16 152 1.6 3.2 0.00 0.00 0.00 86 1005.6
20260506123911 16 208 3.2 3.2 0.00 0.00 0.00 85 1005.5
20260506123408 16 159 0.0 1.6 0.00 0.00 0.00 84 1005.5
20260506122905 16 150 1.6 3.2 0.00 0.00 0.00 84 1005.8
20260506122402 16 220 0.0 1.6 0.00 0.00 0.00 84 1005.9
20260506121901 16 201 6.4 6.4 0.00 0.00 0.00 83 1006.0
20260506121357 16 210 1.6 3.2 0.00 0.00 0.00 82 1006.0
20260506120854 16 224 1.6 1.6 0.00 0.00 0.00 82 1006.0
20260506120352 16 174 3.2 3.2 0.00 0.00 0.00 82 1006.1
20260506115849 16 249 6.4 6.4 0.00 0.00 0.00 81 1005.9
20260506115347 16 203 1.6 1.6 0.00 0.00 0.00 81 1006.0
20260506114845 16 196 3.2 3.2 0.00 0.00 0.00 81 1006.1
20260506114342 16 233 3.2 4.8 0.00 0.00 0.00 81 1006.0
20260506113841 16 200 1.6 3.2 0.00 0.00 0.00 81 1005.8
20260506113338 16 315 3.2 3.2 0.00 0.00 0.00 80 1005.8
20260506112834 16 207 8.0 11.3 0.00 0.00 0.00 80 1005.8
20260506112332 16 237 3.2 6.4 0.00 0.00 0.00 80 1005.9
20260506111829 16 177 6.4 9.7 0.00 0.00 0.00 79 1005.7
20260506111328 16 246 8.0 11.3 0.00 0.00 0.00 79 1005.8
20260506110824 16 242 3.2 3.2 0.00 0.00 0.00 78 1005.5
20260506110321 16 250 6.4 12.9 0.00 0.00 0.00 78 1005.8
20260506105818 16 205 3.2 3.2 0.00 0.00 0.00 79 1005.5
20260506105315 16 126 3.2 3.2 0.00 0.00 0.00 79 1005.5
20260506104812 16 66 1.6 1.6 0.00 0.00 0.00 78 1005.6
20260506104310 16 223 3.2 3.2 0.00 0.00 0.00 77 1005.4
20260506103808 16 231 4.8 6.4 0.00 0.00 0.00 78 1005.4
20260506103305 16 186 3.2 4.8 0.00 0.00 0.00 77 1005.6
20260506102802 16 250 9.7 12.9 0.00 0.00 0.00 77 1005.4
20260506102300 16 230 3.2 3.2 0.00 0.00 0.00 77 1005.8
20260506101757 16 235 8.0 12.9 0.00 0.00 0.00 76 1005.4
20260506101253 16 344 3.2 4.8 0.00 0.00 0.00 76 1005.8
20260506100751 16 215 1.6 1.6 0.00 0.00 0.00 76 1005.4
20260506100249 16 214 6.4 9.7 0.00 0.00 0.00 75 1005.5
20260506095747 16 166 3.2 4.8 0.00 0.00 0.00 75 1005.6
20260506095244 16 221 3.2 4.8 0.00 0.00 0.00 75 1005.7
20260506094740 16 179 1.6 1.6 0.00 0.00 0.00 75 1005.3
20260506094239 16 246 8.0 9.7 0.00 0.00 0.00 74 1005.5
20260506093737 16 223 1.6 1.6 0.00 0.00 0.00 74 1005.5
20260506093234 16 218 3.2 3.2 0.00 0.00 0.00 73 1005.4
20260506092732 16 201 1.6 1.6 0.00 0.00 0.00 73 1005.4
20260506092230 16 209 1.6 3.2 0.00 0.00 0.00 73 1005.5
20260506091727 16 209 1.6 1.6 0.00 0.00 0.00 73 1005.1
20260506091224 16 131 4.8 6.4 0.00 0.00 0.00 72 1005.7
20260506090721 16 209 3.2 3.2 0.00 0.00 0.00 72 1005.8
20260506090218 16 276 6.4 9.7 0.00 0.00 0.00 72 1005.7
20260506085710 16 163 0.0 3.2 0.00 0.00 0.00 72 1005.8
20260506085206 16 189 3.2 4.8 0.00 0.00 0.00 72 1005.9
20260506084703 17 172 3.2 3.2 0.00 0.00 0.00 70 1005.8
20260506084159 17 222 3.2 3.2 0.00 0.00 0.00 71 1005.7
20260506083655 17 228 4.8 6.4 0.00 0.00 0.00 70 1005.8
20260506083153 17 209 1.6 1.6 0.00 0.00 0.00 70 1005.7
20260506082650 17 199 1.6 1.6 0.00 0.00 0.00 69 1005.7
20260506082145 17 191 3.2 3.2 0.00 0.00 0.00 69 1005.8
20260506081643 17 192 4.8 4.8 0.00 0.00 0.00 68 1005.9
20260506081141 17 226 3.2 4.8 0.00 0.00 0.00 69 1005.8
20260506080639 17 226 3.2 4.8 0.00 0.00 0.00 68 1005.9
20260506080135 17 200 1.6 1.6 0.00 0.00 0.00 68 1006.0
20260506073119 17 207 1.6 1.6 0.00 0.00 0.00 65 1006.0
20260506072615 17 185 1.6 1.6 0.00 0.00 0.00 65 1005.9
20260506072114 17 138 0.0 1.6 0.00 0.00 0.00 65 1005.9
20260506071611 17 220 4.8 4.8 0.00 0.00 0.00 64 1006.0
20260506071108 17 232 3.2 3.2 0.00 0.00 0.00 64 1006.1
20260506070605 17 216 1.6 1.6 0.00 0.00 0.00 64 1006.1
20260506062039 18 233 3.2 4.8 0.00 0.00 0.00 63 1006.5
20260506061535 17 222 3.2 3.2 0.00 0.00 0.00 63 1006.5
20260506061033 17 160 3.2 3.2 0.00 0.00 0.00 63 1006.6
20260506060531 18 254 4.8 6.4 0.00 0.00 0.00 62 1006.3
20260506051000 18 191 1.6 1.6 0.00 0.00 0.00 60 1006.8
20260506050458 18 217 6.4 6.4 0.00 0.00 0.00 59 1006.9
20260506044948 18 204 0.0 1.6 0.00 0.00 0.00 59 1006.9
20260506044446 18 217 1.6 1.6 0.00 0.00 0.00 59 1006.7
20260506043943 18 196 1.6 1.6 0.00 0.00 0.00 57 1006.8
20260506043440 18 213 1.6 1.6 0.00 0.00 0.00 58 1007.0
20260506042938 18 212 1.6 3.2 0.00 0.00 0.00 58 1006.9
20260506042437 18 220 3.2 4.8 0.00 0.00 0.00 56 1006.8
20260506041935 18 215 1.6 3.2 0.00 0.00 0.00 57 1006.9
20260506041432 19 194 3.2 4.8 0.00 0.00 0.00 56 1006.7
20260506040929 19 190 3.2 4.8 0.00 0.00 0.00 56 1007.0
20260506040427 18 213 1.6 3.2 0.00 0.00 0.00 58 1006.8
20260506035923 18 263 3.2 4.8 0.00 0.00 0.00 57 1006.8
20260506035421 18 185 1.6 3.2 0.00 0.00 0.00 57 1006.9
20260506034917 18 227 4.8 6.4 0.00 0.00 0.00 57 1006.8
20260506034414 19 200 1.6 1.6 0.00 0.00 0.00 57 1006.9
20260506033911 19 191 0.0 1.6 0.00 0.00 0.00 56 1006.9
20260506033409 19 215 1.6 1.6 0.00 0.00 0.00 55 1006.7
20260506032905 19 233 4.8 6.4 0.00 0.00 0.00 55 1006.9
20260506032402 19 194 4.8 4.8 0.00 0.00 0.00 54 1006.8
20260506031859 20 233 1.6 1.6 0.00 0.00 0.00 54 1006.6
20260506031356 19 228 6.4 9.7 0.00 0.00 0.00 53 1006.7
20260506030854 20 181 1.6 1.6 0.00 0.00 0.00 53 1006.8
20260506030352 20 225 4.8 6.4 0.00 0.00 0.00 52 1006.8
20260506025848 20 199 6.4 9.7 0.00 0.00 0.00 52 1006.8
20260506025344 20 207 1.6 1.6 0.00 0.00 0.00 53 1006.8
20260506024842 20 139 3.2 3.2 0.00 0.00 0.00 52 1006.8
20260506024338 20 194 3.2 3.2 0.00 0.00 0.00 51 1006.8
20260506023835 20 227 3.2 6.4 0.00 0.00 0.00 48 1006.6
20260506023331 20 216 3.2 4.8 0.00 0.00 0.00 49 1006.9
20260506022828 20 239 6.4 6.4 0.00 0.00 0.00 48 1006.9
20260506022326 21 200 4.8 6.4 0.00 0.00 0.00 48 1006.6
20260506021824 21 232 4.8 6.4 0.00 0.00 0.00 47 1007.0
20260506021321 21 214 4.8 6.4 0.00 0.00 0.00 46 1006.8
20260506020817 21 124 3.2 4.8 0.00 0.00 0.00 48 1006.9
20260506020315 21 282 8.0 17.7 0.00 0.00 0.00 47 1006.5
20260506015813 21 206 1.6 3.2 0.00 0.00 0.00 48 1006.8
20260506015310 21 216 3.2 3.2 0.00 0.00 0.00 47 1006.9
20260506014806 21 171 4.8 4.8 0.00 0.00 0.00 48 1006.7
20260506014303 21 213 3.2 3.2 0.00 0.00 0.00 48 1006.6
20260506013800 21 72 3.2 4.8 0.00 0.00 0.00 46 1006.7
20260506013257 21 106 3.2 3.2 0.00 0.00 0.00 49 1006.5
20260506012754 21 209 11.3 14.5 0.00 0.00 0.00 47 1006.6
20260506012251 21 212 3.2 4.8 0.00 0.00 0.00 46 1006.4
20260506011748 22 241 11.3 14.5 0.00 0.00 0.00 45 1006.4
20260506011244 21 222 6.4 6.4 0.00 0.00 0.00 47 1006.2
20260506010743 22 207 3.2 3.2 0.00 0.00 0.00 47 1006.3
20260506010240 21 229 8.0 9.7 0.00 0.00 0.00 46 1006.2
20260506005737 21 157 1.6 1.6 0.00 0.00 0.00 49 1006.0
20260506005233 21 219 3.2 4.8 0.00 0.00 0.00 47 1006.1
20260506004729 21 230 6.4 6.4 0.00 0.00 0.00 47 1006.0
20260506004227 21 218 3.2 3.2 0.00 0.00 0.00 49 1005.9
20260506003723 21 184 1.6 3.2 0.00 0.00 0.00 49 1005.7
20260506003220 21 227 1.6 1.6 0.00 0.00 0.00 48 1006.0
20260506002715 21 203 4.8 6.4 0.00 0.00 0.00 49 1005.9
20260506002212 22 214 3.2 4.8 0.00 0.00 0.00 48 1005.8
20260506001708 22 195 1.6 1.6 0.00 0.00 0.00 48 1005.8
20260506001206 22 181 1.6 3.2 0.00 0.00 0.00 47 1005.7
20260506000702 21 275 6.4 6.4 0.00 0.00 0.00 48 1005.8
20260506000200 22 197 4.8 6.4 0.00 0.00 0.00 47 1005.8
20260505235657 22 161 1.6 1.6 0.00 0.00 0.00 47 1005.5
20260505235155 22 184 1.6 1.6 0.00 0.00 0.00 46 1005.5
20260505234651 22 154 1.6 3.2 0.00 0.00 0.00 45 1005.4
20260505234149 22 204 0.0 1.6 0.00 0.00 0.00 46 1005.7
20260505233645 22 184 6.4 6.4 0.00 0.00 0.00 44 1005.5
20260505233143 23 222 3.2 3.2 0.00 0.00 0.00 42 1005.5
20260505232640 22 211 8.0 12.9 0.00 0.00 0.00 42 1005.3
20260505232138 23 168 3.2 4.8 0.00 0.00 0.00 42 1005.4
20260505231634 22 217 6.4 9.7 0.00 0.00 0.00 43 1005.2
20260505231133 22 175 1.6 1.6 0.00 0.00 0.00 42 1005.3
20260505230631 23 204 0.0 0.0 0.00 0.00 0.00 43 1005.3
20260505230127 23 241 3.2 4.8 0.00 0.00 0.00 43 1005.2
20260505225623 23 216 1.6 3.2 0.00 0.00 0.00 43 1005.2
20260505225120 23 317 6.4 9.7 0.00 0.00 0.00 41 1005.2
20260505224617 23 243 3.2 4.8 0.00 0.00 0.00 41 1005.0
20260505224114 23 278 8.0 11.3 0.00 0.00 0.00 42 1005.1
20260505223611 23 200 3.2 3.2 0.00 0.00 0.00 44 1005.1
20260505223107 23 224 6.4 9.7 0.00 0.00 0.00 41 1004.8
20260505222604 23 248 4.8 6.4 0.00 0.00 0.00 41 1004.9
20260505222100 23 218 6.4 11.3 0.00 0.00 0.00 41 1005.0
20260505221557 23 206 1.6 1.6 0.00 0.00 0.00 42 1004.8
20260505221053 23 231 8.0 11.3 0.00 0.00 0.00 41 1004.8
20260505220551 23 215 0.0 1.6 0.00 0.00 0.00 40 1004.9
20260505220048 24 210 8.0 11.3 0.00 0.00 0.00 40 1004.8
20260505215546 24 83 3.2 3.2 0.00 0.00 0.00 37 1004.9
20260505215044 24 239 1.6 3.2 0.00 0.00 0.00 37 1005.0
20260505214542 24 219 9.7 12.9 0.00 0.00 0.00 36 1004.7
20260505214038 23 187 4.8 6.4 0.00 0.00 0.00 36 1005.1
20260505213536 24 194 6.4 9.7 0.00 0.00 0.00 35 1004.7
20260505213032 24 179 1.6 3.2 0.00 0.00 0.00 37 1004.5
20260505212529 24 242 8.0 9.7 0.00 0.00 0.00 36 1004.5
20260505212026 24 214 6.4 9.7 0.00 0.00 0.00 35 1004.4
20260505211523 24 227 9.7 12.9 0.00 0.00 0.00 36 1004.3
20260505211020 24 250 4.8 6.4 0.00 0.00 0.00 35 1004.5
20260505210516 24 106 6.4 11.3 0.00 0.00 0.00 35 1004.4
20260505210014 24 207 3.2 6.4 0.00 0.00 0.00 35 1004.4
20260505205512 25 221 4.8 9.7 0.00 0.00 0.00 36 1004.4
20260505205009 25 353 6.4 6.4 0.00 0.00 0.00 34 1004.4
20260505204506 25 200 8.0 9.7 0.00 0.00 0.00 34 1003.9
20260505204003 26 104 3.2 3.2 0.00 0.00 0.00 35 1003.9
20260505203459 26 175 9.7 14.5 0.00 0.00 0.00 32 1003.9
20260505202956 26 211 4.8 6.4 0.00 0.00 0.00 32 1004.3
20260505202453 25 4 6.4 9.7 0.00 0.00 0.00 34 1004.0
20260505201949 25 106 8.0 11.3 0.00 0.00 0.00 33 1003.8
20260505201446 26 285 9.7 12.9 0.00 0.00 0.00 32 1003.9
20260505200944 26 185 9.7 16.1 0.00 0.00 0.00 32 1004.0
20260505200441 26 128 8.0 11.3 0.00 0.00 0.00 32 1004.3
20260505195937 27 200 12.9 20.9 0.00 0.00 0.00 31 1004.2
20260505195434 27 215 8.0 12.9 0.00 0.00 0.00 32 1004.4
20260505194931 27 183 4.8 4.8 0.00 0.00 0.00 33 1004.2
20260505194429 27 201 4.8 6.4 0.00 0.00 0.00 34 1004.6
20260505193928 26 180 3.2 4.8 0.00 0.00 0.00 33 1004.7
20260505193426 27 233 8.0 11.3 0.00 0.00 0.00 32 1004.6
20260505192924 27 186 4.8 4.8 0.00 0.00 0.00 34 1004.7
20260505192422 27 10 8.0 12.9 0.00 0.00 0.00 33 1004.7
20260505191919 26 166 3.2 6.4 0.00 0.00 0.00 33 1004.7
20260505191418 26 308 4.8 4.8 0.00 0.00 0.00 33 1004.7
20260505190915 26 230 8.0 17.7 0.00 0.00 0.00 33 1004.7
20260505190410 26 243 6.4 9.7 0.00 0.00 0.00 36 1004.9
20260505185905 26 205 9.7 16.1 0.00 0.00 0.00 34 1004.9
20260505185403 26 255 6.4 11.3 0.00 0.00 0.00 35 1004.9
20260505184858 26 190 9.7 14.5 0.00 0.00 0.00 37 1005.1
20260505184356 27 291 8.0 11.3 0.00 0.00 0.00 35 1005.3
20260505183853 26 252 6.4 9.7 0.00 0.00 0.00 34 1005.1
20260505183349 26 271 6.4 9.7 0.00 0.00 0.00 36 1005.4
20260505182846 27 254 6.4 11.3 0.00 0.00 0.00 33 1005.2
20260505182343 26 223 9.7 12.9 0.00 0.00 0.00 34 1005.5
20260505181840 27 253 6.4 9.7 0.00 0.00 0.00 34 1005.4
20260505181337 27 211 4.8 6.4 0.00 0.00 0.00 37 1005.2
20260505180833 26 183 9.7 11.3 0.00 0.00 0.00 36 1005.4
20260505180330 26 5 4.8 6.4 0.00 0.00 0.00 38 1005.2
20260505175826 26 274 8.0 9.7 0.00 0.00 0.00 39 1005.2
20260505175323 26 210 8.0 9.7 0.00 0.00 0.00 39 1005.5
20260505174819 26 209 11.3 12.9 0.00 0.00 0.00 39 1005.3
20260505174317 25 191 4.8 4.8 0.00 0.00 0.00 38 1005.3
20260505173813 26 262 9.7 11.3 0.00 0.00 0.00 37 1005.7
20260505173309 26 203 3.2 3.2 0.00 0.00 0.00 38 1005.4
20260505172807 26 237 3.2 4.8 0.00 0.00 0.00 37 1005.5
20260505172306 26 237 8.0 12.9 0.00 0.00 0.00 38 1005.6
20260505171758 26 201 4.8 6.4 0.00 0.00 0.00 37 1005.6
20260505171255 26 233 8.0 12.9 0.00 0.00 0.00 39 1005.8
20260505170752 26 208 6.4 11.3 0.00 0.00 0.00 40 1005.5
20260505170249 27 203 8.0 12.9 0.00 0.00 0.00 40 1005.5
20260505165744 25 244 3.2 4.8 0.00 0.00 0.00 42 1005.6
20260505165240 26 266 9.7 11.3 0.00 0.00 0.00 39 1005.7
20260505164736 25 213 4.8 6.4 0.00 0.00 0.00 41 1005.7
20260505164233 26 148 6.4 11.3 0.00 0.00 0.00 41 1005.9
20260505163732 26 207 3.2 6.4 0.00 0.00 0.00 42 1006.1
20260505163230 25 280 8.0 11.3 0.00 0.00 0.00 43 1006.0
20260505162727 25 225 0.0 1.6 0.00 0.00 0.00 46 1006.0
20260505162224 25 122 6.4 11.3 0.00 0.00 0.00 42 1006.3
20260505161720 25 58 3.2 6.4 0.00 0.00 0.00 44 1006.3
20260505161218 25 234 6.4 12.9 0.00 0.00 0.00 44 1006.4
20260505160715 25 223 4.8 6.4 0.00 0.00 0.00 45 1006.7
20260505160213 25 219 4.8 6.4 0.00 0.00 0.00 46 1006.6
20260505153152 23 197 3.2 4.8 0.00 0.00 0.00 46 1006.8
20260505152649 23 224 4.8 4.8 0.00 0.00 0.00 49 1007.0
20260505152145 23 181 4.8 9.7 0.00 0.00 0.00 49 1006.8
20260505151640 23 174 1.6 1.6 0.00 0.00 0.00 51 1007.2